Total_Precipitation_Accumulation
0.10 0.19 0.21 0.22 0.21 0.17 0.14 0.11 0.19 0.21 0.26 0.26 0.21 0.24 0.24 0.22 0.20 0.19 0.17 0.13 0.13 0.17 0.24 0.29 0.32 0.40 0.41 0.37 0.33 0.38 0.50 0.56 0.62 0.56 0.47 0.43 0.40 0.36 0.33 0.33 0.35 0.40 0.45 0.50
0.12 0.15 0.19 0.24 0.23 0.17 0.11 0.08 0.11 0.16 0.20 0.19 0.19 0.24 0.28 0.25 0.20 0.19 0.17 0.12 0.12 0.18 0.23 0.24 0.24 0.25 0.22 0.23 0.25 0.29 0.36 0.41 0.49 0.51 0.44 0.37 0.34 0.33 0.32 0.33 0.39 0.44 0.47 0.52
0.17 0.17 0.19 0.28 0.29 0.21 0.12 0.11 0.14 0.20 0.23 0.18 0.18 0.21 0.26 0.27 0.23 0.20 0.20 0.12 0.10 0.14 0.17 0.16 0.15 0.16 0.18 0.21 0.28 0.35 0.42 0.48 0.54 0.55 0.51 0.44 0.38 0.39 0.39 0.41 0.44 0.46 0.45 0.44
0.23 0.28 0.38 0.28 0.22 0.22 0.22 0.19 0.19 0.25 0.23 0.23 0.26 0.31 0.33 0.36 0.30 0.22 0.19 0.14 0.10 0.11 0.12 0.14 0.15 0.17 0.21 0.28 0.37 0.41 0.49 0.57 0.66 0.69 0.61 0.56 0.56 0.58 0.59 0.59 0.57 0.55 0.50 0.47
0.35 0.41 0.37 0.32 0.22 0.24 0.29 0.34 0.28 0.32 0.33 0.33 0.34 0.34 0.33 0.30 0.24 0.20 0.15 0.16 0.15 0.12 0.15 0.17 0.17 0.20 0.30 0.40 0.47 0.55 0.60 0.69 0.76 0.81 0.80 0.78 0.78 0.77 0.79 0.76 0.67 0.62 0.57 0.59
0.45 0.53 0.51 0.42 0.30 0.28 0.38 0.65 0.47 0.43 0.43 0.38 0.40 0.44 0.40 0.32 0.30 0.27 0.21 0.18 0.18 0.16 0.19 0.22 0.25 0.32 0.43 0.50 0.58 0.67 0.74 0.88 1.00 1.08 1.09 1.08 1.09 1.06 0.99 0.94 0.83 0.77 0.73 0.75
0.57 0.58 0.57 0.46 0.39 0.38 0.66 0.89 0.59 0.43 0.44 0.46 0.55 0.54 0.49 0.38 0.36 0.32 0.24 0.24 0.20 0.20 0.25 0.32 0.39 0.48 0.60 0.70 0.80 0.78 0.83 0.96 1.14 1.22 1.27 1.30 1.36 1.31 1.24 1.16 1.11 1.06 0.99 0.97
0.67 0.77 0.82 0.60 0.55 0.76 0.89 0.73 0.71 0.62 0.56 0.55 0.54 0.45 0.40 0.36 0.35 0.33 0.29 0.31 0.29 0.29 0.36 0.42 0.52 0.60 0.70 0.78 0.79 0.82 0.88 0.98 1.08 1.15 1.15 1.20 1.37 1.41 1.41 1.38 1.30 1.25 1.21 1.08
0.79 0.86 0.76 0.62 0.68 0.77 0.80 0.79 0.75 0.70 0.62 0.54 0.51 0.45 0.35 0.30 0.29 0.27 0.27 0.29 0.29 0.33 0.45 0.55 0.66 0.76 0.86 0.83 0.87 0.89 0.94 1.06 1.14 1.17 1.21 1.29 1.34 1.36 1.39 1.43 1.42 1.33 1.30 1.20
0.87 0.89 0.83 0.71 0.62 0.57 0.61 0.64 0.63 0.59 0.57 0.54 0.50 0.46 0.41 0.33 0.27 0.26 0.26 0.25 0.27 0.32 0.41 0.50 0.59 0.68 0.82 0.92 0.99 1.03 1.07 1.13 1.21 1.28 1.27 1.28 1.38 1.45 1.48 1.53 1.57 1.51 1.44 1.37
0.93 0.86 0.71 0.78 0.79 0.71 0.72 0.76 0.73 0.63 0.60 0.60 0.52 0.49 0.42 0.37 0.33 0.29 0.27 0.26 0.28 0.34 0.41 0.47 0.54 0.62 0.71 0.80 0.92 1.01 1.07 1.10 1.13 1.19 1.25 1.32 1.38 1.43 1.39 1.44 1.41 1.38 1.33 1.32
0.99 0.90 0.84 0.85 0.80 0.72 0.75 0.71 0.71 0.74 0.76 0.60 0.50 0.52 0.49 0.42 0.35 0.34 0.32 0.33 0.36 0.38 0.40 0.44 0.52 0.63 0.72 0.82 0.96 1.09 1.18 1.18 1.12 1.10 1.17 1.23 1.29 1.29 1.21 1.12 1.08 1.03 1.02 1.02
0.75 0.67 0.70 0.72 0.69 0.59 0.55 0.55 0.54 0.57 0.59 0.54 0.49 0.44 0.42 0.41 0.40 0.36 0.34 0.34 0.38 0.40 0.41 0.45 0.49 0.58 0.66 0.77 0.91 1.04 1.12 1.13 1.09 1.07 1.13 1.16 1.20 1.24 1.26 1.16 1.03 0.94 0.89 0.86
0.54 0.50 0.52 0.51 0.52 0.53 0.51 0.49 0.43 0.40 0.40 0.39 0.43 0.43 0.39 0.41 0.41 0.40 0.40 0.38 0.36 0.36 0.37 0.41 0.48 0.53 0.61 0.72 0.84 0.93 0.99 1.02 1.04 1.07 1.11 1.16 1.19 1.22 1.28 1.35 1.32 1.16 0.97 0.87
0.51 0.50 0.50 0.40 0.38 0.41 0.41 0.37 0.33 0.31 0.34 0.39 0.36 0.32 0.28 0.27 0.29 0.29 0.30 0.30 0.33 0.34 0.37 0.42 0.50 0.55 0.63 0.76 0.86 0.89 0.90 0.91 0.91 0.95 0.98 1.03 1.05 1.10 1.17 1.23 1.26 1.17 1.03 0.88
0.57 0.53 0.47 0.40 0.43 0.45 0.41 0.38 0.33 0.30 0.30 0.34 0.35 0.30 0.24 0.22 0.24 0.25 0.25 0.29 0.39 0.43 0.47 0.52 0.58 0.61 0.71 0.80 0.85 0.86 0.82 0.80 0.80 0.83 0.82 0.81 0.82 0.89 0.97 1.04 1.08 1.03 0.95 0.84
0.60 0.56 0.49 0.45 0.43 0.40 0.39 0.37 0.32 0.29 0.25 0.25 0.25 0.21 0.20 0.22 0.25 0.28 0.30 0.32 0.38 0.42 0.48 0.55 0.57 0.60 0.73 0.84 0.87 0.87 0.80 0.73 0.69 0.70 0.70 0.71 0.76 0.82 0.86 0.89 0.94 0.90 0.82 0.69
0.55 0.52 0.50 0.46 0.42 0.37 0.36 0.33 0.31 0.31 0.28 0.24 0.22 0.20 0.22 0.28 0.38 0.44 0.45 0.45 0.45 0.44 0.45 0.50 0.55 0.61 0.74 0.86 0.89 0.89 0.80 0.70 0.63 0.60 0.63 0.65 0.66 0.73 0.79 0.80 0.78 0.75 0.69 0.56
0.46 0.47 0.49 0.50 0.49 0.47 0.44 0.39 0.35 0.32 0.29 0.26 0.27 0.28 0.30 0.37 0.49 0.54 0.54 0.57 0.65 0.70 0.62 0.55 0.55 0.56 0.65 0.81 0.93 0.95 0.83 0.70 0.61 0.56 0.57 0.57 0.59 0.68 0.75 0.73 0.66 0.61 0.57 0.54
0.53 0.55 0.59 0.61 0.59 0.59 0.55 0.48 0.41 0.36 0.32 0.29 0.30 0.33 0.37 0.43 0.54 0.60 0.62 0.61 0.66 0.76 0.77 0.71 0.60 0.54 0.58 0.73 0.91 0.89 0.81 0.72 0.63 0.53 0.54 0.58 0.61 0.66 0.69 0.68 0.60 0.55 0.52 0.51
0.58 0.62 0.65 0.61 0.57 0.55 0.50 0.47 0.46 0.44 0.39 0.37 0.39 0.45 0.51 0.54 0.56 0.65 0.75 0.70 0.60 0.67 0.76 0.75 0.66 0.57 0.56 0.67 0.84 0.87 0.80 0.72 0.62 0.52 0.50 0.53 0.57 0.62 0.65 0.66 0.62 0.55 0.53 0.53
0.63 0.69 0.66 0.58 0.55 0.51 0.44 0.40 0.40 0.40 0.39 0.40 0.45 0.54 0.69 0.76 0.73 0.71 0.66 0.66 0.65 0.74 0.79 0.73 0.65 0.56 0.50 0.56 0.66 0.76 0.72 0.66 0.60 0.53 0.46 0.47 0.54 0.61 0.62 0.62 0.60 0.56 0.55 0.56
0.51 0.52 0.49 0.45 0.40 0.35 0.28 0.26 0.28 0.30 0.33 0.40 0.49 0.65 0.86 0.90 0.89 0.93 0.78 0.60 0.61 0.71 0.72 0.68 0.59 0.50 0.44 0.46 0.53 0.61 0.62 0.61 0.56 0.49 0.41 0.42 0.45 0.50 0.53 0.49 0.51 0.52 0.49 0.44
0.27 0.25 0.23 0.22 0.22 0.23 0.21 0.20 0.21 0.24 0.31 0.38 0.45 0.60 0.85 1.02 0.91 0.73 0.68 0.65 0.64 0.61 0.59 0.58 0.52 0.45 0.43 0.42 0.44 0.51 0.56 0.58 0.54 0.48 0.42 0.42 0.43 0.44 0.47 0.46 0.45 0.42 0.37 0.37
0.21 0.17 0.14 0.16 0.20 0.24 0.26 0.27 0.30 0.33 0.41 0.48 0.48 0.53 0.68 0.91 0.96 0.73 0.59 0.56 0.57 0.55 0.52 0.53 0.55 0.54 0.46 0.40 0.39 0.46 0.52 0.55 0.55 0.50 0.45 0.46 0.43 0.45 0.46 0.44 0.43 0.40 0.39 0.40
0.18 0.16 0.16 0.17 0.21 0.27 0.35 0.45 0.55 0.59 0.71 0.83 0.78 0.71 0.77 0.83 0.78 0.68 0.58 0.50 0.49 0.51 0.49 0.52 0.58 0.60 0.52 0.44 0.44 0.48 0.51 0.56 0.56 0.53 0.50 0.48 0.44 0.43 0.44 0.43 0.43 0.42 0.39 0.36
0.20 0.18 0.19 0.22 0.27 0.34 0.47 0.63 0.77 0.86 0.99 1.18 1.22 1.03 0.95 0.94 0.84 0.73 0.66 0.59 0.57 0.55 0.53 0.51 0.51 0.53 0.54 0.51 0.48 0.47 0.52 0.59 0.59 0.59 0.56 0.49 0.44 0.42 0.41 0.38 0.36 0.36 0.33 0.30